星链-4352 (STARLINK-4352 )

导读

STARLINK-4352是美国太空探索技术公司(SpaceX)星链(Starlink)星座的卫星,于2022年7月11日发射入轨。星链旨在构建全球卫星互联网,为全球提供高速低延迟宽带服务。该卫星作为星链低轨星座的组成部分,承担信号转发服务,助力提升星座覆盖密度与网络服务能力,推动全球互联网普及进程。

Basic Information
目录编号:
53047
目录名称:
STARLINK-4352
国际标识:
2022-077E
轨道中心:
EARTH
卫星名称:
星链-4352
卫星全名:
星链-4352 (STARLINK-4352 )
卫星状态:
在轨 (已飞行1516 天)
发射日期:
2022-07-11 UTC
国别 :
美国 (US)
星等 :
--
Orbit Information
数据来源 国际轨道数据
星历时间: 2026-09-04T04:00:02+0800
10小时前
查看轨道信息
半长轴: 6850.709km
偏心率: 0.0001623
轨道倾角: 97.285°
近地点辐角 81.671°
升交点赤经 61.903°
平近点角 10.191°
近地点: 471.46km
远地点: 473.684km
周期: 94.051分钟
每日圈数: 15.310857
Detailed Information
固有亮度:
5
最大亮度:
2.5
卫星平台:
Starlink v1.5
覆盖范围:
全球
运营商:
太空探索技术公司
运营商所在国:
美国
制造商(研发单位):
太空探索技术公司
制造商所在国:
美国
使用方式:
暂无
Satellite Introduction
星链(Starlink)计划是由太空探索技术公司(SpaceX)提出的一个巨型低轨卫星互联网星座项目,计划在2019年至2024年间在太空搭建由约1.2万颗卫星组成的“星链”网络,其中1584颗将部署在地球上空550千米处的近地轨道,并从2020年开始工作。该卫星仍在工作。
2D Orbit Map
3D Orbit Map
Orbit Altitude Analysis Chart
Orbit Inclination Analysis Chart
Orbit Comprehensive Analysis Chart
View Comprehensive Chart
Conjunction Data List
Event ID Objects TCA Miss Dist (km) Collision Risk Probability Collision Risk Index (CRI) Action
CDM_260904-024205-304706-389021
2026-09-04T
02:42:04+0000
1.389 km
极远距离
8.473398E-6 低风险 0.54
CDM_260905-144605-304706-389921
2026-09-05T
14:46:04+0000
1.423 km
极远距离
7.826705E-6 低风险 0.53
CDM_260904-073305-304706-642821
2026-09-04T
07:33:47+0000
1.422 km
极远距离
6.307894E-6 低风险 0.51
CDM_260903-212605-304706-240721
2026-09-03T
21:26:08+0000
1.614 km
极远距离
5.293138E-6 低风险 0.49
CDM_260904-234105-304705-599321
2026-09-04T
23:41:59+0000
1.526 km
极远距离
4.736439E-6 低风险 0.49
CDM_260904-073405-304706-203721
2026-09-04T
07:34:09+0000
1.598 km
极远距离
4.517495E-6 低风险 0.48
CDM_260903-051705-304705-868421
2026-09-03T
05:17:15+0000
1.636 km
极远距离
4.406958E-6 低风险 0.48
CDM_260905-162805-304705-980021
2026-09-05T
16:28:15+0000
1.754 km
极远距离
3.960477E-6 低风险 0.47
CDM_260905-011605-304705-599321
2026-09-05T
01:16:13+0000
1.668 km
极远距离
3.588265E-6 低风险 0.46
CDM_260905-163205-304706-346121
2026-09-05T
16:32:36+0000
1.838 km
极远距离
3.114741E-6 低风险 0.45